This demonstration page uses our WeatherBlox Daily Observations layout. Learn more.

Left ArrowRight Arrow

44.8408, -93.29828

Hourly Observations for March 4, 2018

Temp ( °F °C ) Dew Point ( °F °C ) Humidity (%) Winds ( mph kmh ) Pressure ( in mb ) Visibility ( mi km ) Precip ( " mm )
12:53 am 00:53 Cloudy 40 4.4 25 -3.9 55 55 ESE 17 28 30.30 1026 10 16 0.00 0.00
1:53 am 01:53 Cloudy 38 3.3 26 -3.3 62 62 ESE 18 30 30.29 1026 10 16 0.00 0.00
2:53 am 02:53 Cloudy 38 3.3 26 -3.3 62 62 SE 13 20 30.28 1026 10 16 0.00 0.03
3:53 am 03:53 Cloudy 38 3.3 25 -3.9 60 60 SE 20 31 30.27 1025 10 16 0.00 0.00
4:53 am 04:53 Cloudy with Light Rain 36 2.2 27 -2.8 70 70 ESE 21 33 30.25 1024 10 16 0.00 0.03
5:53 am 05:53 Cloudy 35 1.7 27 -2.8 72 72 ESE 17 28 30.24 1024 10 16 0.00 0.03
6:53 am 06:53 Cloudy 34 1.1 28 -2.2 79 79 ESE 20 31 30.24 1024 10 16 0.00 0.00
7:53 am 07:53 Cloudy with Rain 33 0.6 31 -0.6 92 92 ESE 21 33 30.24 1024 4 6 0.02 0.51
8:53 am 08:53 Cloudy with Light Rain 35 1.7 30 -1.1 82 82 ESE 20 31 30.23 1024 10 16 0.03 0.76
9:53 am 09:53 Cloudy 35 1.7 30 -1.1 82 82 ESE 18 30 30.24 1024 10 16 0.00 0.03
10:53 am 10:53 Cloudy with Light Rain 35 1.7 30 -1.1 82 82 ESE 20 31 30.22 1023 10 16 0.00 0.03
11:53 am 11:53 Cloudy 38 3.3 30 -1.1 73 73 ESE 24 39 30.20 1023 10 16 0.02 0.51
12:53 pm 12:53 Mostly Cloudy 39 3.9 28 -2.2 65 65 SE 23 37 30.17 1022 10 16 0.00 0.00
1:53 pm 13:53 Cloudy 38 3.3 28 -2.2 68 68 ESE 20 31 30.15 1021 10 16 0.00 0.00
2:53 pm 14:53 Cloudy 40 4.4 28 -2.2 63 63 E 18 30 30.13 1020 10 16 0.00 0.00
3:53 pm 15:53 Mostly Cloudy 42 5.6 28 -2.2 58 58 E 20 31 30.11 1020 10 16 0.00 0.00
4:53 pm 16:53 Mostly Cloudy 41 5 27 -2.8 57 57 ESE 17 28 30.10 1019 10 16 0.00 0.00
5:53 pm 17:53 Mostly Cloudy 41 5 25 -3.9 53 53 E 14 22 30.09 1019 10 16 0.00 0.00
6:53 pm 18:53 Cloudy 41 5 26 -3.3 55 55 E 16 26 30.09 1019 10 16 0.00 0.00
7:53 pm 19:53 Cloudy 41 5 26 -3.3 55 55 E 15 24 30.09 1019 10 16 0.00 0.00
8:53 pm 20:53 Cloudy 40 4.4 25 -3.9 55 55 E 16 26 30.09 1019 10 16 0.00 0.00
9:53 pm 21:53 Cloudy 39 3.9 25 -3.9 57 57 ESE 20 31 30.07 1018 10 16 0.00 0.00
10:53 pm 22:53 Cloudy 39 3.9 24 -4.4 55 55 ESE 20 31 30.06 1018 10 16 0.00 0.03
11:53 pm 23:53 Cloudy 38 3.3 23 -5 55 55 ESE 13 20 30.07 1018 10 16 0.00 0.00

Powered by AerisWeather